TimeEDT,TemperatureF,Dew PointF,Humidity,Sea Level PressureIn,VisibilityMPH,Wind Direction,Wind SpeedMPH,Gust SpeedMPH,PrecipitationIn,Events,Conditions,WindDirDegrees,DateUTC
12:53 AM,57.0,55.0,93,30.10,6.0,NE,3.5,24.2,0.01,,Overcast,50,2013-09-16 04:53:00
1:53 AM,57.0,55.0,93,30.10,6.0,Calm,Calm,-,N/A,,Overcast,0,2013-09-16 05:53:00
2:53 AM,57.9,55.0,90,30.11,5.0,Calm,Calm,-,N/A,,Overcast,0,2013-09-16 06:53:00
3:53 AM,57.0,55.9,96,30.13,4.0,NW,4.6,-,N/A,,Overcast,320,2013-09-16 07:53:00
4:53 AM,57.0,55.0,93,30.14,6.0,NNW,5.8,-,N/A,,Overcast,340,2013-09-16 08:53:00
5:50 AM,55.4,55.4,100,30.17,4.0,NNW,3.5,-,N/A,,Overcast,330,2013-09-16 09:50:00
5:53 AM,55.9,55.0,97,30.16,4.0,NNW,5.8,-,N/A,,Overcast,330,2013-09-16 09:53:00
6:53 AM,55.9,53.1,90,30.18,7.0,North,4.6,-,N/A,,Overcast,350,2013-09-16 10:53:00
7:53 AM,55.0,52.0,89,30.21,7.0,NNW,4.6,-,N/A,,Partly Cloudy,340,2013-09-16 11:53:00
8:03 AM,55.4,51.8,88,30.22,6.0,North,8.1,-,N/A,,Mostly Cloudy,360,2013-09-16 12:03:00
8:53 AM,54.0,52.0,93,30.23,6.0,North,10.4,-,N/A,,Overcast,360,2013-09-16 12:53:00
9:53 AM,57.9,53.1,84,30.25,10.0,North,10.4,-,N/A,,Overcast,10,2013-09-16 13:53:00
10:10 AM,60.8,55.4,82,30.26,10.0,North,11.5,-,N/A,,Scattered Clouds,350,2013-09-16 14:10:00
10:40 AM,60.8,53.6,77,30.27,10.0,NNE,12.7,-,N/A,,Mostly Cloudy,20,2013-09-16 14:40:00
10:53 AM,60.1,53.1,78,30.26,10.0,NNE,10.4,-,N/A,,Overcast,20,2013-09-16 14:53:00
11:53 AM,61.0,53.1,75,30.27,10.0,NNE,10.4,-,N/A,,Overcast,20,2013-09-16 15:53:00
12:21 PM,60.8,51.8,72,30.29,10.0,NE,5.8,-,N/A,,Overcast,40,2013-09-16 16:21:00
12:53 PM,63.0,53.1,70,30.27,10.0,North,10.4,-,N/A,,Overcast,350,2013-09-16 16:53:00
1:16 PM,62.6,51.8,68,30.29,10.0,NNE,10.4,-,N/A,,Overcast,20,2013-09-16 17:16:00
1:33 PM,62.6,53.6,72,30.29,10.0,North,9.2,-,N/A,,Overcast,10,2013-09-16 17:33:00
1:53 PM,64.0,53.1,67,30.29,10.0,North,11.5,-,N/A,,Overcast,350,2013-09-16 17:53:00
2:53 PM,66.9,53.1,61,30.27,10.0,NNW,9.2,-,N/A,,Scattered Clouds,330,2013-09-16 18:53:00
3:53 PM,66.9,51.1,57,30.26,10.0,North,10.4,17.3,N/A,,Mostly Cloudy,360,2013-09-16 19:53:00
4:53 PM,66.0,51.1,59,30.26,10.0,NNE,9.2,-,N/A,,Scattered Clouds,20,2013-09-16 20:53:00
5:53 PM,64.0,48.9,58,30.27,10.0,NNE,10.4,-,N/A,,Mostly Cloudy,30,2013-09-16 21:53:00
6:53 PM,62.1,48.9,62,30.27,10.0,NE,9.2,-,N/A,,Scattered Clouds,50,2013-09-16 22:53:00
7:53 PM,59.0,48.9,69,30.29,10.0,NE,12.7,-,N/A,,Clear,40,2013-09-16 23:53:00
8:53 PM,57.9,46.9,67,30.30,10.0,NE,9.2,-,N/A,,Partly Cloudy,40,2013-09-17 00:53:00
9:53 PM,55.9,46.9,72,30.32,10.0,NE,8.1,-,N/A,,Clear,50,2013-09-17 01:53:00
10:53 PM,54.0,46.9,77,30.32,10.0,ENE,11.5,-,N/A,,Clear,60,2013-09-17 02:53:00
11:53 PM,52.0,45.0,77,30.33,10.0,ENE,6.9,-,N/A,,Clear,70,2013-09-17 03:53:00